| time (UTC) | temp F | wind direction | speed MPH | gust MPH | rain 1hr in | rain 24hr in | rain mn in | humidity % | barometer mb |
| 20260903161406 | 91 | 160 | 3.0 | 5.0 | 0.00 | 0.00 | 0.00 | 48 | 1012.8 |
| 20260903160406 | 90 | 231 | 2.0 | 9.0 | 0.00 | 0.00 | 0.00 | 52 | 1012.9 |
| 20260903151404 | 88 | 194 | 2.0 | 3.0 | 0.00 | 0.00 | 0.00 | 55 | 1013.1 |
| 20260903150403 | 88 | 186 | 1.0 | 8.0 | 0.00 | 0.00 | 0.00 | 55 | 1013.0 |
| 20260903144406 | 87 | 184 | 1.0 | 3.0 | 0.00 | 0.00 | 0.00 | 57 | 1013.0 |
| 20260903141404 | 83 | 229 | 2.0 | 6.0 | 0.00 | 0.00 | 0.00 | 63 | 1012.7 |
| 20260903140406 | 83 | 236 | 1.0 | 3.0 | 0.00 | 0.00 | 0.00 | 62 | 1012.6 |
| 20260903133404 | 83 | 238 | 2.0 | 3.0 | 0.00 | 0.00 | 0.00 | 60 | 1012.3 |
| 20260903131405 | 83 | 239 | 1.0 | 5.0 | 0.00 | 0.00 | 0.00 | 59 | 1012.1 |
| 20260903124404 | 84 | 244 | 1.0 | 3.0 | 0.00 | 0.00 | 0.00 | 57 | 1011.9 |
| 20260903123404 | 84 | 244 | 1.0 | 8.0 | 0.00 | 0.00 | 0.00 | 56 | 1011.6 |
| 20260903121404 | 84 | 200 | 1.0 | 2.0 | 0.00 | 0.00 | 0.00 | 56 | 1011.4 |
| 20260903120404 | 84 | 196 | 0.0 | 2.0 | 0.00 | 0.00 | 0.00 | 56 | 1011.5 |
| 20260903114404 | 85 | 194 | 0.0 | 6.0 | 0.00 | 0.00 | 0.00 | 56 | 1011.4 |
| 20260903111404 | 85 | 239 | 3.0 | 8.0 | 0.00 | 0.00 | 0.00 | 56 | 1011.2 |
| 20260903071405 | 87 | 5 | 0.0 | 1.0 | 0.00 | 0.00 | 0.00 | 30 | 1011.1 |
| 20260903063404 | 87 | 274 | 1.0 | 1.0 | 0.00 | 0.00 | 0.00 | 30 | 1010.8 |
| 20260903061404 | 87 | 274 | 0.0 | 0.0 | 0.00 | 0.00 | 0.00 | 29 | 1010.9 |
| 20260903054405 | 90 | 274 | 0.0 | 1.0 | 0.00 | 0.00 | 0.00 | 25 | 1010.6 |
| 20260903053404 | 90 | 274 | 0.0 | 1.0 | 0.00 | 0.00 | 0.00 | 24 | 1010.6 |
| 20260903050404 | 92 | 274 | 0.0 | 2.0 | 0.00 | 0.00 | 0.00 | 24 | 1010.7 |
| 20260903044405 | 94 | 274 | 3.0 | 3.0 | 0.00 | 0.00 | 0.00 | 23 | 1010.7 |
| 20260903043404 | 94 | 284 | 2.0 | 7.0 | 0.00 | 0.00 | 0.00 | 23 | 1010.7 |
| 20260903041407 | 94 | 266 | 3.0 | 3.0 | 0.00 | 0.00 | 0.00 | 25 | 1010.6 |
| 20260903034404 | 96 | 245 | 4.0 | 6.0 | 0.00 | 0.00 | 0.00 | 31 | 1010.2 |
| 20260903033404 | 96 | 269 | 4.0 | 7.0 | 0.00 | 0.00 | 0.00 | 29 | 1010.1 |
| 20260903031405 | 96 | 269 | 5.0 | 7.0 | 0.00 | 0.00 | 0.00 | 28 | 1010.0 |
| 20260903030404 | 97 | 288 | 5.0 | 8.0 | 0.00 | 0.00 | 0.00 | 27 | 1009.9 |
| 20260903024406 | 97 | 260 | 5.0 | 9.0 | 0.00 | 0.00 | 0.00 | 26 | 1009.8 |
| 20260903023405 | 98 | 273 | 4.0 | 10.0 | 0.00 | 0.00 | 0.00 | 26 | 1009.8 |
| 20260902223407 | 103 | 298 | 8.0 | 13.0 | 0.00 | 0.00 | 0.00 | 26 | 1010.7 |
| 20260902221406 | 103 | 234 | 4.0 | 9.0 | 0.00 | 0.00 | 0.00 | 28 | 1010.9 |
| 20260902220403 | 102 | 169 | 5.0 | 10.0 | 0.00 | 0.00 | 0.00 | 31 | 1011.0 |
| 20260902214403 | 103 | 292 | 6.0 | 13.0 | 0.00 | 0.00 | 0.00 | 29 | 1011.3 |
| 20260902213407 | 102 | 215 | 10.0 | 12.0 | 0.00 | 0.00 | 0.00 | 30 | 1011.3 |
| 20260902204408 | 102 | 273 | 7.0 | 9.0 | 0.00 | 0.00 | 0.00 | 28 | 1012.1 |
| 20260902203406 | 103 | 250 | 2.0 | 10.0 | 0.00 | 0.00 | 0.00 | 27 | 1012.2 |
| 20260902201404 | 103 | 165 | 6.0 | 8.0 | 0.00 | 0.00 | 0.00 | 29 | 1012.6 |
| 20260902194405 | 102 | 234 | 4.0 | 8.0 | 0.00 | 0.00 | 0.00 | 30 | 1013.1 |
| 20260902193406 | 102 | 263 | 9.0 | 12.0 | 0.00 | 0.00 | 0.00 | 31 | 1013.3 |
| 20260902190404 | 100 | 197 | 5.0 | 9.0 | 0.00 | 0.00 | 0.00 | 32 | 1013.7 |
| 20260902184406 | 100 | 213 | 2.0 | 9.0 | 0.00 | 0.00 | 0.00 | 33 | 1013.9 |
| 20260902183407 | 98 | 217 | 5.0 | 12.0 | 0.00 | 0.00 | 0.00 | 34 | 1014.0 |
| 20260902180409 | 98 | 242 | 3.0 | 10.0 | 0.00 | 0.00 | 0.00 | 34 | 1014.3 |
| 20260902174405 | 97 | 298 | 5.0 | 9.0 | 0.00 | 0.00 | 0.00 | 35 | 1014.5 |
| 20260902173406 | 96 | 270 | 5.0 | 9.0 | 0.00 | 0.00 | 0.00 | 35 | 1014.5 |
| 20260902170403 | 95 | 237 | 5.0 | 12.0 | 0.00 | 0.00 | 0.00 | 37 | 1014.4 |
| 20260902164403 | 94 | 232 | 5.0 | 12.0 | 0.00 | 0.00 | 0.00 | 38 | 1014.5 |
| 20260902163406 | 94 | 231 | 6.0 | 8.0 | 0.00 | 0.00 | 0.00 | 38 | 1014.4 |